| time (UTC) | temp F | wind direction | speed MPH | gust MPH | rain 1hr in | rain 24hr in | rain mn in | humidity % | barometer mb |
| 20260905093646 | 65 | 300 | 2.0 | 4.0 | 0.00 | 0.00 | 0.00 | 80 | 1028.9 |
| 20260905092518 | 65 | 329 | 3.0 | 6.0 | 0.00 | 0.00 | 0.00 | 80 | 1029.1 |
| 20260905091526 | 64 | 331 | 4.0 | 7.0 | 0.00 | 0.00 | 0.00 | 80 | 1028.9 |
| 20260905090517 | 65 | 332 | 3.0 | 6.0 | 0.00 | 0.00 | 0.00 | 79 | 1028.7 |
| 20260905085606 | 65 | 348 | 2.0 | 6.0 | 0.00 | 0.00 | 0.00 | 79 | 1028.7 |
| 20260905084537 | 65 | 342 | 2.0 | 4.0 | 0.00 | 0.00 | 0.00 | 79 | 1028.6 |
| 20260905083545 | 64 | 342 | 3.0 | 6.0 | 0.00 | 0.00 | 0.00 | 79 | 1028.4 |
| 20260905082516 | 64 | 7 | 2.0 | 4.0 | 0.00 | 0.00 | 0.00 | 79 | 1028.5 |
| 20260905081606 | 64 | 331 | 3.0 | 8.0 | 0.00 | 0.00 | 0.00 | 79 | 1028.5 |
| 20260905080537 | 64 | 47 | 2.0 | 4.0 | 0.00 | 0.00 | 0.00 | 80 | 1028.2 |
| 20260905075525 | 63 | 289 | 3.0 | 8.0 | 0.00 | 0.00 | 0.00 | 80 | 1028.0 |
| 20260905074517 | 64 | 321 | 7.0 | 13.0 | 0.00 | 0.00 | 0.00 | 81 | 1027.9 |
| 20260905073526 | 65 | 329 | 6.0 | 13.0 | 0.00 | 0.00 | 0.00 | 80 | 1027.8 |
| 20260905072518 | 66 | 323 | 6.0 | 13.0 | 0.00 | 0.00 | 0.00 | 76 | 1027.5 |
| 20260905071526 | 66 | 324 | 6.0 | 15.0 | 0.00 | 0.00 | 0.00 | 74 | 1027.4 |
| 20260905070518 | 67 | 330 | 4.0 | 8.0 | 0.00 | 0.00 | 0.00 | 74 | 1027.2 |
| 20260905065526 | 67 | 328 | 5.0 | 9.0 | 0.00 | 0.00 | 0.00 | 75 | 1026.7 |
| 20260905064517 | 66 | 329 | 5.0 | 9.0 | 0.00 | 0.00 | 0.00 | 77 | 1026.5 |
| 20260905063526 | 66 | 317 | 1.0 | 4.0 | 0.00 | 0.00 | 0.00 | 79 | 1026.3 |
| 20260905062517 | 66 | 317 | 2.0 | 6.0 | 0.00 | 0.00 | 0.00 | 79 | 1026.1 |
| 20260905061525 | 64 | 333 | 2.0 | 7.0 | 0.00 | 0.00 | 0.00 | 83 | 1026.1 |
| 20260905060518 | 64 | 337 | 2.0 | 4.0 | 0.00 | 0.00 | 0.00 | 84 | 1026.0 |
| 20260905055532 | 63 | 337 | 2.0 | 4.0 | 0.00 | 0.00 | 0.00 | 84 | 1025.8 |
| 20260905054516 | 64 | 28 | 0.0 | 2.0 | 0.00 | 0.00 | 0.00 | 83 | 1025.7 |
| 20260905053546 | 64 | 343 | 2.0 | 6.0 | 0.00 | 0.00 | 0.00 | 81 | 1025.8 |
| 20260905052516 | 63 | 311 | 3.0 | 8.0 | 0.00 | 0.00 | 0.00 | 84 | 1025.8 |
| 20260905051526 | 62 | 329 | 2.0 | 4.0 | 0.00 | 0.00 | 0.00 | 86 | 1025.5 |
| 20260905050536 | 63 | 85 | 2.0 | 2.0 | 0.00 | 0.00 | 0.00 | 83 | 1025.1 |
| 20260905045526 | 62 | 319 | 3.0 | 8.0 | 0.00 | 0.00 | 0.00 | 85 | 1025.0 |
| 20260905044516 | 62 | 340 | 1.0 | 3.0 | 0.00 | 0.00 | 0.00 | 84 | 1024.7 |
| 20260905043525 | 64 | 94 | 1.0 | 3.0 | 0.00 | 0.00 | 0.00 | 82 | 1024.5 |
| 20260905042517 | 62 | 312 | 1.0 | 4.0 | 0.00 | 0.00 | 0.00 | 85 | 1024.6 |
| 20260905041604 | 61 | 331 | 3.0 | 3.0 | 0.00 | 0.00 | 0.00 | 86 | 1024.5 |
| 20260905040518 | 61 | 22 | 1.0 | 3.0 | 0.00 | 0.00 | 0.00 | 86 | 1024.4 |
| 20260905035526 | 63 | 313 | 1.0 | 2.0 | 0.00 | 0.00 | 0.00 | 82 | 1024.3 |
| 20260905034518 | 63 | 273 | 1.0 | 2.0 | 0.00 | 0.00 | 0.00 | 83 | 1024.2 |
| 20260905033531 | 63 | 330 | 0.0 | 1.0 | 0.00 | 0.00 | 0.00 | 83 | 1024.2 |
| 20260905032530 | 62 | 0.0 | 0.0 | 0.00 | 0.00 | 0.00 | 85 | 1024.3 | |
| 20260905031524 | 63 | 332 | 2.0 | 3.0 | 0.00 | 0.00 | 0.00 | 82 | 1024.5 |
| 20260905030517 | 64 | 0.0 | 0.0 | 0.00 | 0.00 | 0.00 | 82 | 1024.5 | |
| 20260905025544 | 64 | 309 | 1.0 | 3.0 | 0.00 | 0.00 | 0.00 | 82 | 1024.5 |
| 20260905024538 | 63 | 354 | 3.0 | 4.0 | 0.00 | 0.00 | 0.00 | 82 | 1024.6 |
| 20260905023544 | 64 | 334 | 1.0 | 2.0 | 0.00 | 0.00 | 0.00 | 81 | 1024.6 |
| 20260905022538 | 64 | 353 | 0.0 | 1.0 | 0.00 | 0.00 | 0.00 | 81 | 1024.4 |
| 20260905021533 | 65 | 189 | 1.0 | 3.0 | 0.00 | 0.00 | 0.00 | 80 | 1024.5 |
| 20260905020517 | 65 | 7 | 0.0 | 1.0 | 0.00 | 0.00 | 0.00 | 79 | 1024.5 |
| 20260905015547 | 65 | 256 | 1.0 | 2.0 | 0.00 | 0.00 | 0.00 | 79 | 1024.7 |
| 20260905014531 | 65 | 268 | 1.0 | 2.0 | 0.00 | 0.00 | 0.00 | 78 | 1024.6 |
| 20260905013526 | 64 | 271 | 1.0 | 2.0 | 0.00 | 0.00 | 0.00 | 81 | 1024.5 |
| 20260905012516 | 64 | 187 | 2.0 | 3.0 | 0.00 | 0.00 | 0.00 | 82 | 1024.6 |
| 20260905011526 | 63 | 146 | 1.0 | 3.0 | 0.00 | 0.00 | 0.00 | 82 | 1024.6 |
| 20260905010533 | 63 | 28 | 0.0 | 2.0 | 0.00 | 0.00 | 0.00 | 83 | 1024.6 |
| 20260905005525 | 64 | 341 | 0.0 | 2.0 | 0.00 | 0.00 | 0.00 | 81 | 1024.5 |
| 20260905004516 | 63 | 265 | 1.0 | 2.0 | 0.00 | 0.00 | 0.00 | 82 | 1024.5 |
| 20260905003546 | 64 | 21 | 1.0 | 2.0 | 0.00 | 0.00 | 0.00 | 82 | 1024.4 |
| 20260905002544 | 63 | 311 | 1.0 | 2.0 | 0.00 | 0.00 | 0.00 | 83 | 1024.4 |
| 20260905001526 | 64 | 41 | 1.0 | 2.0 | 0.00 | 0.00 | 0.00 | 82 | 1024.4 |
| 20260905000524 | 64 | 281 | 1.0 | 2.0 | 0.00 | 0.00 | 0.00 | 80 | 1024.2 |
| 20260904235526 | 64 | 0.0 | 0.0 | 0.00 | 0.00 | 0.00 | 81 | 1024.4 | |
| 20260904234524 | 64 | 295 | 0.0 | 1.0 | 0.00 | 0.00 | 0.00 | 81 | 1024.3 |
| 20260904233526 | 63 | 295 | 0.0 | 1.0 | 0.00 | 0.00 | 0.00 | 82 | 1024.3 |
| 20260904232524 | 64 | 0.0 | 0.0 | 0.00 | 0.00 | 0.00 | 81 | 1024.1 | |
| 20260904231546 | 64 | 293 | 0.0 | 1.0 | 0.00 | 0.00 | 0.00 | 80 | 1024.0 |
| 20260904230524 | 64 | 315 | 1.0 | 2.0 | 0.00 | 0.00 | 0.00 | 79 | 1024.1 |
| 20260904225516 | 64 | 337 | 1.0 | 2.0 | 0.00 | 0.00 | 0.00 | 80 | 1024.1 |
| 20260904224524 | 65 | 339 | 2.0 | 6.0 | 0.00 | 0.00 | 0.00 | 77 | 1023.9 |
| 20260904223516 | 66 | 219 | 1.0 | 3.0 | 0.00 | 0.00 | 0.00 | 75 | 1023.7 |
| 20260904222524 | 66 | 201 | 1.0 | 2.0 | 0.00 | 0.00 | 0.00 | 75 | 1023.7 |
| 20260904221536 | 66 | 213 | 1.0 | 2.0 | 0.00 | 0.00 | 0.00 | 77 | 1023.7 |
| 20260904220524 | 66 | 284 | 1.0 | 2.0 | 0.00 | 0.00 | 0.00 | 76 | 1023.8 |
| 20260904215516 | 65 | 292 | 0.0 | 1.0 | 0.00 | 0.00 | 0.00 | 78 | 1023.8 |
| 20260904214544 | 65 | 292 | 0.0 | 1.0 | 0.00 | 0.00 | 0.00 | 79 | 1023.7 |
| 20260904213516 | 65 | 292 | 1.0 | 2.0 | 0.00 | 0.00 | 0.00 | 78 | 1023.6 |
| 20260904212524 | 66 | 293 | 0.0 | 2.0 | 0.00 | 0.00 | 0.00 | 76 | 1023.4 |
| 20260904211516 | 66 | 323 | 1.0 | 1.0 | 0.00 | 0.00 | 0.00 | 77 | 1023.5 |
| 20260904210524 | 66 | 11 | 0.0 | 1.0 | 0.00 | 0.00 | 0.00 | 77 | 1023.5 |
| 20260904205516 | 67 | 11 | 0.0 | 1.0 | 0.00 | 0.00 | 0.00 | 76 | 1023.4 |
| 20260904204524 | 67 | 327 | 0.0 | 1.0 | 0.00 | 0.00 | 0.00 | 74 | 1023.4 |
| 20260904203527 | 67 | 336 | 1.0 | 1.0 | 0.00 | 0.00 | 0.00 | 74 | 1023.4 |
| 20260904202532 | 68 | 347 | 1.0 | 2.0 | 0.00 | 0.00 | 0.00 | 73 | 1023.3 |
| 20260904201532 | 69 | 287 | 0.0 | 1.0 | 0.00 | 0.00 | 0.00 | 71 | 1023.2 |
| 20260904200516 | 68 | 165 | 0.0 | 1.0 | 0.00 | 0.00 | 0.00 | 72 | 1023.0 |
| 20260904195532 | 69 | 165 | 1.0 | 1.0 | 0.00 | 0.00 | 0.00 | 72 | 1022.9 |
| 20260904194516 | 70 | 165 | 1.0 | 2.0 | 0.00 | 0.00 | 0.00 | 70 | 1022.8 |
| 20260904193531 | 70 | 149 | 1.0 | 2.0 | 0.00 | 0.00 | 0.00 | 68 | 1022.9 |
| 20260904192516 | 70 | 266 | 1.0 | 2.0 | 0.00 | 0.00 | 0.00 | 68 | 1022.9 |
| 20260904191532 | 70 | 166 | 1.0 | 3.0 | 0.00 | 0.00 | 0.00 | 69 | 1022.8 |
| 20260904190534 | 71 | 63 | 0.0 | 2.0 | 0.00 | 0.00 | 0.00 | 68 | 1022.6 |
| 20260904185552 | 71 | 250 | 2.0 | 3.0 | 0.00 | 0.00 | 0.00 | 68 | 1022.5 |
| 20260904184523 | 71 | 69 | 1.0 | 2.0 | 0.00 | 0.00 | 0.00 | 68 | 1022.4 |
| 20260904183532 | 71 | 195 | 1.0 | 2.0 | 0.00 | 0.00 | 0.00 | 68 | 1022.2 |
| 20260904182516 | 72 | 69 | 1.0 | 2.0 | 0.00 | 0.00 | 0.00 | 68 | 1022.1 |
| 20260904181532 | 72 | 268 | 1.0 | 2.0 | 0.00 | 0.00 | 0.00 | 64 | 1022.0 |
| 20260904180533 | 73 | 194 | 1.0 | 3.0 | 0.00 | 0.00 | 0.00 | 63 | 1021.7 |
| 20260904175532 | 74 | 182 | 1.0 | 2.0 | 0.00 | 0.00 | 0.00 | 61 | 1021.4 |
| 20260904174544 | 75 | 329 | 0.0 | 2.0 | 0.00 | 0.00 | 0.00 | 61 | 1021.4 |
| 20260904173516 | 75 | 307 | 1.0 | 2.0 | 0.00 | 0.00 | 0.00 | 59 | 1021.3 |
| 20260904172544 | 75 | 350 | 1.0 | 2.0 | 0.00 | 0.00 | 0.00 | 60 | 1021.2 |
| 20260904171516 | 76 | 8 | 0.0 | 1.0 | 0.00 | 0.00 | 0.00 | 59 | 1021.1 |
| 20260904170545 | 77 | 316 | 2.0 | 3.0 | 0.00 | 0.00 | 0.00 | 57 | 1020.9 |
| 20260904165516 | 78 | 29 | 0.0 | 1.0 | 0.00 | 0.00 | 0.00 | 56 | 1020.8 |
| 20260904164524 | 79 | 163 | 0.0 | 1.0 | 0.00 | 0.00 | 0.00 | 51 | 1020.7 |
| 20260904163516 | 80 | 172 | 1.0 | 2.0 | 0.00 | 0.00 | 0.00 | 48 | 1020.8 |
| 20260904162524 | 82 | 330 | 1.0 | 2.0 | 0.00 | 0.00 | 0.00 | 51 | 1020.9 |
| 20260904161536 | 84 | 322 | 1.0 | 2.0 | 0.00 | 0.00 | 0.00 | 45 | 1020.8 |
| 20260904160524 | 86 | 322 | 1.0 | 2.0 | 0.00 | 0.00 | 0.00 | 44 | 1020.7 |
| 20260904155522 | 87 | 304 | 1.0 | 3.0 | 0.00 | 0.00 | 0.00 | 41 | 1020.8 |
| 20260904154524 | 88 | 304 | 1.0 | 2.0 | 0.00 | 0.00 | 0.00 | 40 | 1020.9 |
| 20260904153532 | 89 | 291 | 1.0 | 3.0 | 0.00 | 0.00 | 0.00 | 41 | 1020.9 |
| 20260904152527 | 87 | 309 | 1.0 | 3.0 | 0.00 | 0.00 | 0.00 | 42 | 1021.0 |
| 20260904151522 | 87 | 270 | 2.0 | 3.0 | 0.00 | 0.00 | 0.00 | 41 | 1021.0 |
| 20260904150516 | 89 | 257 | 2.0 | 4.0 | 0.00 | 0.00 | 0.00 | 40 | 1021.1 |
| 20260904145532 | 87 | 327 | 2.0 | 4.0 | 0.00 | 0.00 | 0.00 | 42 | 1021.3 |
| 20260904144516 | 90 | 329 | 2.0 | 3.0 | 0.00 | 0.00 | 0.00 | 40 | 1021.3 |
| 20260904143532 | 89 | 281 | 2.0 | 3.0 | 0.00 | 0.00 | 0.00 | 39 | 1021.4 |
| 20260904142536 | 88 | 325 | 3.0 | 4.0 | 0.00 | 0.00 | 0.00 | 40 | 1021.6 |
| 20260904141516 | 89 | 278 | 2.0 | 3.0 | 0.00 | 0.00 | 0.00 | 39 | 1021.7 |
| 20260904140544 | 88 | 310 | 2.0 | 4.0 | 0.00 | 0.00 | 0.00 | 39 | 1021.7 |
| 20260904135536 | 88 | 324 | 2.0 | 3.0 | 0.00 | 0.00 | 0.00 | 39 | 1022.2 |
| 20260904134544 | 87 | 311 | 2.0 | 4.0 | 0.00 | 0.00 | 0.00 | 40 | 1022.4 |
| 20260904133518 | 86 | 311 | 2.0 | 6.0 | 0.00 | 0.00 | 0.00 | 41 | 1022.4 |
| 20260904132521 | 85 | 327 | 4.0 | 6.0 | 0.00 | 0.00 | 0.00 | 43 | 1022.6 |
| 20260904131532 | 85 | 318 | 2.0 | 3.0 | 0.00 | 0.00 | 0.00 | 42 | 1022.7 |
| 20260904130516 | 85 | 316 | 4.0 | 6.0 | 0.00 | 0.00 | 0.00 | 43 | 1022.8 |
| 20260904125552 | 85 | 324 | 4.0 | 7.0 | 0.00 | 0.00 | 0.00 | 43 | 1023.0 |
| 20260904124516 | 85 | 333 | 3.0 | 6.0 | 0.00 | 0.00 | 0.00 | 43 | 1023.3 |
| 20260904123532 | 86 | 347 | 2.0 | 4.0 | 0.00 | 0.00 | 0.00 | 42 | 1023.5 |
| 20260904122516 | 84 | 322 | 2.0 | 4.0 | 0.00 | 0.00 | 0.00 | 44 | 1023.8 |
| 20260904121532 | 84 | 9 | 1.0 | 4.0 | 0.00 | 0.00 | 0.00 | 44 | 1023.9 |
| 20260904120516 | 84 | 330 | 2.0 | 4.0 | 0.00 | 0.00 | 0.00 | 44 | 1024.1 |
| 20260904115532 | 84 | 135 | 1.0 | 3.0 | 0.00 | 0.00 | 0.00 | 43 | 1024.4 |
| 20260904114517 | 83 | 22 | 0.0 | 2.0 | 0.00 | 0.00 | 0.00 | 43 | 1024.5 |
| 20260904113533 | 81 | 337 | 3.0 | 7.0 | 0.00 | 0.00 | 0.00 | 45 | 1024.7 |
| 20260904112516 | 81 | 356 | 2.0 | 7.0 | 0.00 | 0.00 | 0.00 | 44 | 1024.9 |
| 20260904111532 | 82 | 303 | 1.0 | 3.0 | 0.00 | 0.00 | 0.00 | 44 | 1025.2 |
| 20260904110536 | 81 | 9 | 2.0 | 4.0 | 0.00 | 0.00 | 0.00 | 45 | 1025.4 |
| 20260904105632 | 80 | 22 | 1.0 | 3.0 | 0.00 | 0.00 | 0.00 | 47 | 1025.5 |
| 20260904104516 | 79 | 345 | 2.0 | 4.0 | 0.00 | 0.00 | 0.00 | 48 | 1025.7 |
| 20260904103532 | 79 | 9 | 1.0 | 2.0 | 0.00 | 0.00 | 0.00 | 48 | 1026.0 |
| 20260904102536 | 79 | 347 | 2.0 | 7.0 | 0.00 | 0.00 | 0.00 | 49 | 1026.1 |
| 20260904101532 | 77 | 31 | 1.0 | 3.0 | 0.00 | 0.00 | 0.00 | 51 | 1026.2 |
| 20260904100516 | 79 | 48 | 1.0 | 3.0 | 0.00 | 0.00 | 0.00 | 50 | 1026.5 |
| 20260904095532 | 76 | 321 | 1.0 | 2.0 | 0.00 | 0.00 | 0.00 | 53 | 1026.8 |
| 20260904094517 | 77 | 64 | 1.0 | 3.0 | 0.00 | 0.00 | 0.00 | 52 | 1026.8 |